EW9904 Weather Reports


Display with metric or nautical units.
time (UTC)temp
F
wind
direction
speed
MPH
gust
MPH
rain 1hr
in
rain 24hr
in
rain mn
in
humidity
%
barometer
mb
20260506141005 74 279 7.0 25.0 0.00 0.00 0.00 62 1011.2
20260506140506 76 257 5.0 13.0 0.00 0.00 0.00 60 1011.7
20260506140007 75 272 6.0 15.0 0.00 0.00 0.00 64 1011.4
20260506135504 74 201 7.0 16.0 0.00 0.00 0.00 64 1011.1
20260506135004 73 264 6.0 17.0 0.00 0.00 0.00 64 1011.3
20260506134504 73 209 5.0 17.0 0.00 0.00 0.00 63 1011.5
20260506134004 75 266 5.0 15.0 0.00 0.00 0.00 65 1011.5
20260506133503 73 303 7.0 18.0 0.00 0.00 0.00 65 1011.5
20260506132503 72 196 5.0 17.0 0.00 0.00 0.00 65 1011.6
20260506132005 72 234 5.0 17.0 0.00 0.00 0.00 66 1011.6
20260506131503 71 67 5.0 17.0 0.00 0.00 0.00 66 1011.7
20260506131005 72 310 5.0 17.0 0.00 0.00 0.00 67 1011.6
20260506130503 72 239 5.0 15.0 0.00 0.00 0.00 66 1011.7
20260506130006 71 24 5.0 12.0 0.00 0.00 0.00 67 1011.9
20260506125502 70 213 5.0 15.0 0.00 0.00 0.00 68 1012.0
20260506125002 69 256 5.0 26.0 0.00 0.00 0.00 68 1011.9
20260506124502 69 224 5.0 26.0 0.00 0.00 0.00 68 1011.9
20260506124004 69 231 5.0 12.0 0.00 0.00 0.00 68 1011.9
20260506123503 69 178 4.0 12.0 0.00 0.00 0.00 69 1012.0
20260506123003 69 238 4.0 13.0 0.00 0.00 0.00 68 1011.8
20260506122502 69 246 5.0 13.0 0.00 0.00 0.00 68 1011.9
20260506122004 69 271 5.0 22.0 0.00 0.00 0.00 68 1011.9
20260506121501 69 279 5.0 22.0 0.00 0.00 0.00 68 1011.8
20260506121002 70 215 5.0 18.0 0.00 0.00 0.00 67 1011.8
20260506120502 69 175 4.0 14.0 0.00 0.00 0.00 68 1011.8
20260506120006 68 328 4.0 10.0 0.00 0.00 0.00 68 1011.8
20260506115502 68 237 4.0 10.0 0.00 0.00 0.00 69 1011.8
20260506115004 67 169 3.0 16.0 0.00 0.00 0.00 70 1011.7
20260506114502 66 334 4.0 16.0 0.00 0.00 0.00 72 1011.8
20260506114003 66 261 4.0 13.0 0.00 0.00 0.00 70 1011.9
20260506113502 66 237 4.0 13.0 0.00 0.00 0.00 71 1011.8
20260506113004 66 201 4.0 15.0 0.00 0.00 0.00 71 1011.8
20260506112503 66 297 5.0 15.0 0.00 0.00 0.00 71 1011.7
20260506112002 66 334 5.0 16.0 0.00 0.00 0.00 71 1011.7
20260506111502 66 196 4.0 16.0 0.00 0.00 0.00 71 1011.6
20260506111004 66 229 4.0 9.0 0.00 0.00 0.00 72 1011.8
20260506110503 65 148 4.0 11.0 0.00 0.00 0.00 72 1011.8
20260506110004 65 263 4.0 11.0 0.00 0.00 0.00 73 1011.6
20260506105501 64 208 3.0 13.0 0.00 0.00 0.00 73 1011.7
20260506105003 64 232 3.0 13.0 0.00 0.00 0.00 74 1011.8
20260506104502 64 97 3.0 11.0 0.00 0.00 0.00 73 1011.8
20260506102501 64 217 3.0 15.0 0.00 0.00 0.00 73 1011.9
20260506102003 64 263 3.0 9.0 0.00 0.00 0.00 73 1011.9
20260506101503 64 221 4.0 11.0 0.00 0.00 0.00 73 1011.9
20260506101002 64 195 3.0 13.0 0.00 0.00 0.00 73 1011.9
20260506100504 64 225 3.0 9.0 0.00 0.00 0.00 73 1011.8
20260506095503 64 263 4.0 13.0 0.00 0.00 0.00 73 1011.6
20260506095003 64 237 3.0 13.0 0.00 0.00 0.00 73 1011.6
20260506094502 63 226 3.0 10.0 0.00 0.00 0.00 73 1011.6
20260506094002 64 271 3.0 9.0 0.00 0.00 0.00 73 1011.8
20260506093501 64 225 3.0 9.0 0.00 0.00 0.00 73 1011.8
20260506093004 63 205 3.0 8.0 0.00 0.00 0.00 73 1011.8
20260506092501 64 206 3.0 6.0 0.00 0.00 0.00 72 1011.7
20260506092003 63 266 3.0 7.0 0.00 0.00 0.00 72 1011.7
20260506091502 64 235 2.0 7.0 0.00 0.00 0.00 72 1011.7
20260506090501 64 242 3.0 9.0 0.00 0.00 0.00 71 1011.7
20260506090006 64 230 3.0 9.0 0.00 0.00 0.00 71 1011.7
20260506085501 64 165 3.0 9.0 0.00 0.00 0.00 72 1011.7
20260506085002 64 273 3.0 7.0 0.00 0.00 0.00 71 1011.8
20260506084501 64 221 3.0 7.0 0.00 0.00 0.00 71 1011.9
20260506084003 64 159 3.0 7.0 0.00 0.00 0.00 71 1011.8
20260506083501 65 192 3.0 10.0 0.00 0.00 0.00 71 1011.7
20260506083002 65 184 3.0 10.0 0.00 0.00 0.00 71 1011.9
20260506082500 65 313 3.0 12.0 0.00 0.00 0.00 70 1011.8
20260506082002 65 212 3.0 9.0 0.00 0.00 0.00 71 1011.9
20260506081502 65 178 2.0 9.0 0.00 0.00 0.00 71 1011.9
20260506081002 64 228 4.0 12.0 0.00 0.00 0.00 72 1011.9
20260506080502 65 215 4.0 12.0 0.00 0.00 0.00 72 1011.9
20260506073501 65 175 3.0 11.0 0.00 0.00 0.00 73 1012.0
20260506073002 65 270 4.0 11.0 0.00 0.00 0.00 74 1011.9
20260506072501 65 214 4.0 15.0 0.00 0.00 0.00 74 1011.9
20260506072001 65 239 5.0 15.0 0.00 0.00 0.00 74 1011.8
20260506071500 65 262 4.0 9.0 0.00 0.00 0.00 74 1011.8
20260506071005 65 292 3.0 8.0 0.00 0.00 0.00 74 1011.8
20260506070501 65 233 4.0 8.0 0.00 0.00 0.00 75 1011.9
20260506062001 65 82 4.0 10.0 0.00 0.00 0.00 75 1012.1
20260506061501 65 149 4.0 10.0 0.00 0.00 0.00 75 1012.1
20260506061001 65 206 4.0 12.0 0.00 0.00 0.00 76 1012.2
20260506060500 65 266 4.0 12.0 0.00 0.00 0.00 75 1012.2
20260506051002 66 219 4.0 12.0 0.00 0.00 0.00 75 1012.6
20260506050502 66 273 4.0 12.0 0.00 0.00 0.00 75 1012.6
20260506045004 66 211 5.0 11.0 0.00 0.00 0.00 75 1012.6
20260506044004 66 221 4.0 11.0 0.00 0.00 0.00 75 1012.6
20260506043504 66 235 4.0 12.0 0.00 0.00 0.00 75 1012.5
20260506043005 66 201 4.0 12.0 0.00 0.00 0.00 75 1012.5
20260506042503 66 220 4.0 10.0 0.00 0.00 0.00 75 1012.5
20260506042004 66 229 4.0 10.0 0.00 0.00 0.00 74 1012.5
20260506041503 66 200 4.0 8.0 0.00 0.00 0.00 74 1012.6
20260506041003 66 277 4.0 10.0 0.00 0.00 0.00 74 1012.5
20260506040504 66 207 4.0 10.0 0.00 0.00 0.00 74 1012.4
20260506040016 66 198 4.0 9.0 0.00 0.00 0.00 74 1012.5
20260506035505 66 200 4.0 11.0 0.00 0.00 0.00 73 1012.5
20260506034506 66 223 3.0 12.0 0.00 0.00 0.00 73 1012.5
20260506034007 66 264 4.0 8.0 0.00 0.00 0.00 73 1012.5
20260506033506 67 217 4.0 12.0 0.00 0.00 0.00 73 1012.5
20260506033007 67 166 4.0 12.0 0.00 0.00 0.00 73 1012.5
20260506032505 67 184 4.0 14.0 0.00 0.00 0.00 72 1012.5
20260506032007 67 215 4.0 14.0 0.00 0.00 0.00 72 1012.6
20260506031506 67 194 4.0 11.0 0.00 0.00 0.00 72 1012.4
20260506031006 67 223 4.0 12.0 0.00 0.00 0.00 72 1012.5
20260506030506 67 257 4.0 14.0 0.00 0.00 0.00 72 1012.5
20260506030006 67 210 4.0 14.0 0.00 0.00 0.00 72 1012.6
20260506025006 67 263 4.0 13.0 0.00 0.00 0.00 72 1012.5
20260506024504 67 217 3.0 8.0 0.00 0.00 0.00 72 1012.5
20260506024005 67 225 4.0 10.0 0.00 0.00 0.00 72 1012.5
20260506023504 67 219 4.0 12.0 0.00 0.00 0.00 72 1012.6
20260506023005 67 14 4.0 12.0 0.00 0.00 0.00 71 1012.6
20260506022505 67 207 4.0 10.0 0.00 0.00 0.00 71 1012.6
20260506022005 67 187 4.0 10.0 0.00 0.00 0.00 71 1012.5
20260506021505 68 167 4.0 12.0 0.00 0.00 0.00 71 1012.5
20260506021004 68 280 5.0 16.0 0.00 0.00 0.00 70 1012.5
20260506020504 68 215 4.0 16.0 0.00 0.00 0.00 70 1012.5
20260506020006 68 246 4.0 11.0 0.00 0.00 0.00 70 1012.5
20260506015504 68 276 4.0 14.0 0.00 0.00 0.00 70 1012.6
20260506015005 68 244 4.0 14.0 0.00 0.00 0.00 70 1012.4
20260506014504 68 282 4.0 14.0 0.00 0.00 0.00 70 1012.5
20260506013504 68 202 6.0 13.0 0.00 0.00 0.00 69 1012.3
20260506013006 69 267 6.0 13.0 0.00 0.00 0.00 69 1012.3
20260506012005 69 239 5.0 14.0 0.00 0.00 0.00 69 1012.1
20260506011504 69 207 5.0 15.0 0.00 0.00 0.00 68 1012.1
20260506005504 69 239 5.0 16.0 0.00 0.00 0.00 68 1011.9
20260506004504 69 235 5.0 15.0 0.00 0.00 0.00 68 1011.8
20260506004005 69 298 5.0 15.0 0.00 0.00 0.00 68 1011.7
20260506003503 70 277 5.0 12.0 0.00 0.00 0.00 67 1011.7
20260506003006 70 233 6.0 15.0 0.00 0.00 0.00 67 1011.6
20260506002504 70 194 5.0 15.0 0.00 0.00 0.00 67 1011.5
20260506001504 70 195 4.0 13.0 0.00 0.00 0.00 66 1011.5
20260506001004 70 208 5.0 13.0 0.00 0.00 0.00 66 1011.5
20260506000008 70 314 5.0 16.0 0.00 0.00 0.00 65 1011.5
20260505235505 70 148 5.0 10.0 0.00 0.00 0.00 64 1011.6
20260505235006 71 222 5.0 10.0 0.00 0.00 0.00 63 1011.5
20260505234504 71 189 6.0 14.0 0.00 0.00 0.00 63 1011.4
20260505233504 71 235 5.0 11.0 0.00 0.00 0.00 62 1011.4
20260505232504 72 210 5.0 14.0 0.00 0.00 0.00 60 1011.4
20260505232005 72 126 5.0 11.0 0.00 0.00 0.00 59 1011.5
20260505231504 73 216 5.0 11.0 0.00 0.00 0.00 58 1011.5
20260505231006 73 239 6.0 20.0 0.00 0.00 0.00 57 1011.4
20260505230504 74 233 5.0 20.0 0.00 0.00 0.00 56 1011.4
20260505225504 74 267 5.0 11.0 0.00 0.00 0.00 56 1011.3
20260505225005 74 184 5.0 12.0 0.00 0.00 0.00 55 1011.3
20260505224505 74 216 6.0 15.0 0.00 0.00 0.00 55 1011.3
20260505224005 75 249 5.0 16.0 0.00 0.00 0.00 55 1011.3
20260505223503 75 161 4.0 16.0 0.00 0.00 0.00 54 1011.3
20260505223004 76 223 5.0 22.0 0.00 0.00 0.00 54 1011.3
20260505222505 76 194 5.0 22.0 0.00 0.00 0.00 52 1011.1
20260505222005 76 223 6.0 17.0 0.00 0.00 0.00 53 1011.2
20260505221505 77 300 7.0 17.0 0.00 0.00 0.00 51 1011.1
20260505220006 77 223 6.0 18.0 0.00 0.00 0.00 52 1011.0
20260505215004 78 186 5.0 14.0 0.00 0.00 0.00 53 1010.8
20260505214503 78 279 5.0 12.0 0.00 0.00 0.00 51 1010.9
20260505214005 78 223 6.0 21.0 0.00 0.00 0.00 51 1010.9
20260505213504 79 202 7.0 21.0 0.00 0.00 0.00 49 1010.9
20260505212503 80 186 6.0 16.0 0.00 0.00 0.00 48 1010.7
20260505212005 80 214 6.0 16.0 0.00 0.00 0.00 49 1010.7
20260505211505 80 289 5.0 15.0 0.00 0.00 0.00 47 1010.6
20260505211004 82 240 4.0 11.0 0.00 0.00 0.00 43 1010.7
20260505210503 82 205 5.0 14.0 0.00 0.00 0.00 40 1010.8
20260505210006 82 250 7.0 15.0 0.00 0.00 0.00 36 1010.7
20260505205503 82 286 7.0 24.0 0.00 0.00 0.00 37 1010.6
20260505205005 83 222 6.0 24.0 0.00 0.00 0.00 37 1010.8
20260505204005 83 222 6.0 17.0 0.00 0.00 0.00 36 1010.9
20260505203503 83 210 5.0 15.0 0.00 0.00 0.00 37 1010.7
20260505203004 83 262 5.0 15.0 0.00 0.00 0.00 38 1010.7
20260505202503 83 259 5.0 14.0 0.00 0.00 0.00 40 1010.7
20260505202004 83 286 5.0 14.0 0.00 0.00 0.00 38 1010.9
20260505201504 83 293 6.0 16.0 0.00 0.00 0.00 38 1011.0
20260505201004 83 250 7.0 18.0 0.00 0.00 0.00 39 1011.0
20260505200503 83 288 6.0 18.0 0.00 0.00 0.00 38 1011.1
20260505200005 84 289 6.0 17.0 0.00 0.00 0.00 38 1011.1
20260505195010 83 265 5.0 17.0 0.00 0.00 0.00 38 1011.2
20260505194504 84 263 6.0 15.0 0.00 0.00 0.00 37 1011.4
20260505193503 85 234 4.0 19.0 0.00 0.00 0.00 36 1011.2
20260505193005 85 242 3.0 10.0 0.00 0.00 0.00 38 1011.3
20260505192503 85 167 4.0 12.0 0.00 0.00 0.00 37 1011.3
20260505192004 85 171 5.0 12.0 0.00 0.00 0.00 36 1011.3
20260505191504 85 227 5.0 14.0 0.00 0.00 0.00 37 1011.3
20260505191005 85 189 6.0 14.0 0.00 0.00 0.00 35 1011.3
20260505190503 85 11 6.0 14.0 0.00 0.00 0.00 35 1011.4
20260505190005 84 297 6.0 17.0 0.00 0.00 0.00 36 1011.4
20260505185503 84 355 6.0 17.0 0.00 0.00 0.00 36 1011.6
20260505185005 85 327 4.0 14.0 0.00 0.00 0.00 40 1011.5
20260505184504 84 187 5.0 12.0 0.00 0.00 0.00 41 1011.7
20260505184005 84 145 5.0 20.0 0.00 0.00 0.00 42 1011.6
20260505183005 84 236 5.0 13.0 0.00 0.00 0.00 39 1011.6
20260505182504 84 217 5.0 13.0 0.00 0.00 0.00 39 1011.7
20260505182005 83 255 5.0 13.0 0.00 0.00 0.00 40 1011.8
20260505181504 84 242 6.0 17.0 0.00 0.00 0.00 42 1011.8
20260505180504 84 238 4.0 13.0 0.00 0.00 0.00 43 1011.9
20260505180006 84 265 4.0 14.0 0.00 0.00 0.00 45 1012.0
20260505175504 84 261 5.0 12.0 0.00 0.00 0.00 42 1012.1
20260505175005 84 313 4.0 14.0 0.00 0.00 0.00 47 1012.2
20260505174503 84 223 4.0 14.0 0.00 0.00 0.00 45 1012.1
20260505174004 83 285 5.0 13.0 0.00 0.00 0.00 43 1012.2
20260505173006 84 306 4.0 13.0 0.00 0.00 0.00 43 1012.2
20260505172503 83 244 4.0 11.0 0.00 0.00 0.00 43 1012.3
20260505171505 83 205 4.0 10.0 0.00 0.00 0.00 43 1012.2
20260505171003 82 198 4.0 10.0 0.00 0.00 0.00 48 1012.3
20260505170503 82 266 5.0 12.0 0.00 0.00 0.00 46 1012.4
20260505170005 82 202 4.0 12.0 0.00 0.00 0.00 44 1012.4
20260505165502 82 253 4.0 10.0 0.00 0.00 0.00 46 1012.4
20260505165004 83 212 4.0 10.0 0.00 0.00 0.00 44 1012.4
20260505164502 82 253 5.0 11.0 0.00 0.00 0.00 46 1012.4
20260505164002 81 234 5.0 15.0 0.00 0.00 0.00 46 1012.4
20260505162502 81 128 4.0 10.0 0.00 0.00 0.00 48 1012.5
20260505162004 81 317 4.0 13.0 0.00 0.00 0.00 48 1012.4
20260505161503 80 311 4.0 13.0 0.00 0.00 0.00 46 1012.5
20260505161005 80 213 4.0 12.0 0.00 0.00 0.00 50 1012.7
20260505160503 80 261 4.0 12.0 0.00 0.00 0.00 51 1012.7
20260505153004 78 210 4.0 14.0 0.00 0.00 0.00 50 1012.8
20260505152504 78 271 4.0 14.0 0.00 0.00 0.00 53 1012.9
20260505152005 78 272 4.0 12.0 0.00 0.00 0.00 50 1012.8
20260505151503 78 265 4.0 11.0 0.00 0.00 0.00 54 1012.8
20260505151004 77 283 4.0 13.0 0.00 0.00 0.00 51 1012.8
20260505150502 77 219 4.0 13.0 0.00 0.00 0.00 51 1012.8